PROGRESS-MS 26

Last updated on Thu Aug 15 2024 00:02:06 GMT+0000 (Coordinated Universal Time)

1 58961U 24029A 24226.84456892 .00024406 00000+0 43306-3 0 9992 2 58961 51.6396 29.6975 0005394 199.4472 160.6312 15.50070365 27703
UTC large
Height (km)
Speed (km/s)
/
Latitude / Longitude
Inclination (degrees)
Orbital Period (minutes)
Azimuth
Elevation
Range (km)
Doppler Factor

Next 0 passes for location: London (51.5072 / 0.1276)

Sorry there are no passes over London.